San Carlos, CA

10:21 AM PDT on September 26, 2017 (GMT -0700)
San Carlos

Weather History for KSQL - November, 2013

Change the Weather History Date:

Friday, November 15, 2013

  Actual Average Record
Temperature  
Mean Temperature 55 °F -  
Max Temperature 64 °F 63 °F 78 °F (2008)
Min Temperature 46 °F 43 °F 30 °F (1978)
Degree Days  
Heating Degree Days 10    
Growing Degree Days 5 (Base 50)    
Moisture  
Dew Point 43 °F    
Average Humidity 69    
Maximum Humidity 82    
Minimum Humidity 32    
Precipitation  
Precipitation 0.00 in - - ()
Sea Level Pressure  
Sea Level Pressure 29.84 in    
Wind  
Wind Speed 9 mph (WNW)    
Max Wind Speed 16 mph    
Max Gust Speed 23 mph    
Visibility 10 miles    
Events      
Averages and records for this station are not official NWS values.
T = Trace of Precipitation, MM = Missing Value Source: NWS Daily Summary

Daily Weather History Graph

Daily Weather History Graph

Search for Another Location

Airport or City:

Trip Planner

Search our weather history database for the weather conditions in past years. The results will help you decide how hot, cold, wet, or windy it might be!

Date:

Astronomy

Nov. 15, 2013 Rise Set
Actual Time 6:49 AM PST 4:57 PM PST
Civil Twilight 6:21 AM PST 5:25 PM PST
Nautical Twilight 5:49 AM PST 5:57 PM PST
Astronomical Twilight 5:18 AM PST 6:28 PM PST
Moon 3:56 PM PST (11/15) 4:52 AM PST (11/15)
Length of Visible Light 11h 04m
Length of Day
10h 08m
Waxing Gibbous, 97% of the Moon is Illuminated
Nov 15
Waxing Gibbous
Nov 17
Full
Nov 25
Last Quarter
Dec 2
New
Dec 9
First Quarter

Hourly Weather History & Observations

Time (PST) Temp. Dew Point Humidity Pressure Visibility Wind Dir Wind Speed Gust Speed Precip Events Conditions
12:15 AM 55.4 °F 42.8 °F 63% 29.91 in 10.0 mi WNW 11.5 mph - N/A   Clear
12:35 AM 53.6 °F 44.6 °F 72% 29.90 in 10.0 mi West 13.8 mph - N/A   Clear
12:55 AM 53.6 °F 42.8 °F 67% 29.89 in 10.0 mi West 15.0 mph - N/A   Clear
1:15 AM 53.6 °F 42.8 °F 67% 29.89 in 10.0 mi WNW 13.8 mph 23.0 mph N/A   Clear
1:35 AM 55.4 °F 42.8 °F 63% 29.88 in 10.0 mi WNW 16.1 mph 20.7 mph N/A   Clear
1:55 AM 53.6 °F 44.6 °F 72% 29.88 in 10.0 mi WNW 16.1 mph 19.6 mph N/A   Clear
2:15 AM 53.6 °F 44.6 °F 72% 29.88 in 10.0 mi WNW 9.2 mph - N/A   Clear
2:35 AM 53.6 °F 44.6 °F 72% 29.87 in 10.0 mi West 13.8 mph - N/A   Clear
2:55 AM 53.6 °F 44.6 °F 72% 29.87 in 10.0 mi WNW 10.4 mph - N/A   Clear
3:15 AM 53.6 °F 44.6 °F 72% 29.87 in 10.0 mi NW 5.8 mph - N/A   Clear
3:35 AM 53.6 °F 44.6 °F 72% 29.86 in 10.0 mi WNW 9.2 mph - N/A   Clear
3:55 AM 51.8 °F 44.6 °F 76% 29.86 in 10.0 mi West 6.9 mph - N/A   Clear
4:15 AM 51.8 °F 46.4 °F 82% 29.86 in 10.0 mi WNW 6.9 mph - N/A   Clear
4:35 AM 51.8 °F 46.4 °F 82% 29.86 in 10.0 mi West 6.9 mph - N/A   Clear
4:55 AM 51.8 °F 44.6 °F 76% 29.86 in 10.0 mi West 4.6 mph - N/A   Clear
5:15 AM 50.0 °F 44.6 °F 82% 29.85 in 10.0 mi WNW 5.8 mph - N/A   Clear
5:35 AM 50.0 °F 44.6 °F 82% 29.86 in 10.0 mi WNW 3.5 mph - N/A   Clear
5:55 AM 50.0 °F 44.6 °F 82% 29.86 in 10.0 mi WNW 4.6 mph - N/A   Clear
6:15 AM 50.0 °F 44.6 °F 82% 29.85 in 10.0 mi Calm Calm - N/A   Clear
6:35 AM 48.2 °F 42.8 °F 82% 29.86 in 10.0 mi Calm Calm - N/A   Clear
6:55 AM 48.2 °F 41.0 °F 76% 29.86 in 10.0 mi Calm Calm - N/A   Clear
6:57 AM 46.4 °F 41.0 °F 81% 29.87 in 10.0 mi Calm Calm - N/A   Clear
7:54 AM 50.0 °F 44.6 °F 82% 29.86 in 10.0 mi WSW 3.5 mph - N/A   Clear
8:52 AM 53.6 °F 44.6 °F 72% 29.86 in 10.0 mi SE 4.6 mph - N/A   Clear
9:47 AM 55.4 °F 44.6 °F 67% 29.85 in 10.0 mi ENE 3.5 mph - N/A   Clear
10:47 AM 57.2 °F 44.6 °F 63% 29.85 in 10.0 mi ENE 3.5 mph - N/A   Clear
11:47 AM 60.8 °F 39.2 °F 45% 29.82 in 10.0 mi WNW 6.9 mph - N/A   Clear
12:47 PM 64.4 °F 33.8 °F 32% 29.79 in 10.0 mi WNW 8.1 mph - N/A   Clear
1:50 PM 64.4 °F 42.8 °F 45% 29.77 in 10.0 mi NNW 8.1 mph - N/A   Clear
2:48 PM 64.4 °F 41.0 °F 42% 29.76 in 10.0 mi West 9.2 mph - N/A   Partly Cloudy
3:50 PM 62.6 °F 39.2 °F 42% 29.76 in 10.0 mi West 8.1 mph - N/A   Partly Cloudy
4:55 PM 59.0 °F 41.0 °F 51% 29.76 in 10.0 mi NW 6.9 mph - N/A   Partly Cloudy
5:54 PM 55.4 °F 42.8 °F 63% 29.77 in 10.0 mi NW 8.1 mph - N/A   Clear
6:47 PM 53.6 °F 42.8 °F 67% 29.77 in 10.0 mi South 4.6 mph - N/A   Partly Cloudy
7:50 PM 53.6 °F 41.0 °F 62% 29.78 in 10.0 mi West 4.6 mph - N/A   Partly Cloudy
8:48 PM 51.8 °F 41.0 °F 67% 29.81 in 10.0 mi Calm Calm - N/A   Partly Cloudy
9:15 PM 50.0 °F 39.2 °F 66% 29.81 in 10.0 mi SSW 3.5 mph - N/A   Clear
9:35 PM 50.0 °F 39.2 °F 66% 29.80 in 10.0 mi SSW 4.6 mph - N/A   Clear
9:55 PM 50.0 °F 41.0 °F 71% 29.80 in 10.0 mi Calm Calm - N/A   Clear
10:15 PM 48.2 °F 41.0 °F 76% 29.80 in 10.0 mi South 5.8 mph - N/A   Clear
10:35 PM 48.2 °F 41.0 °F 76% 29.80 in 10.0 mi SSW 3.5 mph - N/A   Clear
10:55 PM 50.0 °F 41.0 °F 71% 29.81 in 10.0 mi NW 6.9 mph - N/A   Clear
11:15 PM 50.0 °F 44.6 °F 82% 29.80 in 10.0 mi NW 8.1 mph - N/A   Clear
11:35 PM 50.0 °F 44.6 °F 82% 29.80 in 10.0 mi WNW 4.6 mph - N/A   Clear
11:55 PM 50.0 °F 44.6 °F 82% 29.81 in 10.0 mi West 5.8 mph - N/A   Clear